TimeEDT,TemperatureF,Dew PointF,Humidity,Sea Level PressureIn,VisibilityMPH,Wind Direction,Wind SpeedMPH,Gust SpeedMPH,PrecipitationIn,Events,Conditions,WindDirDegrees,DateUTC
12:53 AM,48.9,46.0,90,30.08,4.0,Calm,Calm,-,N/A,,Clear,0,2013-09-20 04:53:00
1:18 AM,46.4,46.4,100,30.08,2.0,Calm,Calm,-,N/A,,Clear,0,2013-09-20 05:18:00
1:26 AM,46.4,44.6,93,30.08,6.0,Calm,Calm,-,N/A,,Partly Cloudy,0,2013-09-20 05:26:00
1:48 AM,48.2,44.6,87,30.08,1.8,Calm,Calm,-,N/A,,Partly Cloudy,0,2013-09-20 05:48:00
1:53 AM,46.9,45.0,93,30.08,0.8,Calm,Calm,-,N/A,,Mist,0,2013-09-20 05:53:00
1:59 AM,46.4,46.4,100,30.08,1.2,Calm,Calm,-,N/A,,Partly Cloudy,0,2013-09-20 05:59:00
2:08 AM,46.4,44.6,93,30.08,2.5,Calm,Calm,-,N/A,,Partly Cloudy,0,2013-09-20 06:08:00
2:22 AM,46.4,44.6,93,30.08,1.0,Calm,Calm,-,N/A,,Mist,0,2013-09-20 06:22:00
2:29 AM,46.4,44.6,93,30.08,0.5,Calm,Calm,-,N/A,Fog,Fog,0,2013-09-20 06:29:00
2:40 AM,46.4,44.6,93,30.08,0.2,Calm,Calm,-,N/A,Fog,Fog,0,2013-09-20 06:40:00
2:53 AM,46.9,44.1,90,30.08,0.8,Calm,Calm,-,N/A,,Mist,0,2013-09-20 06:53:00
2:56 AM,46.4,44.6,93,30.08,2.5,Calm,Calm,-,N/A,,Mostly Cloudy,0,2013-09-20 06:56:00
2:58 AM,46.4,44.6,93,30.08,5.0,Calm,Calm,-,N/A,,Scattered Clouds,0,2013-09-20 06:58:00
3:02 AM,46.4,44.6,93,30.08,1.0,Calm,Calm,-,N/A,,Mist,0,2013-09-20 07:02:00
3:09 AM,46.4,44.6,93,30.09,0.5,Calm,Calm,-,N/A,Fog,Fog,0,2013-09-20 07:09:00
3:20 AM,46.4,44.6,93,30.09,1.0,Calm,Calm,-,N/A,,Mist,0,2013-09-20 07:20:00
3:49 AM,46.4,44.6,93,30.09,2.0,Calm,Calm,-,N/A,,Overcast,0,2013-09-20 07:49:00
3:53 AM,46.0,44.1,93,30.09,1.5,Calm,Calm,-,N/A,,Overcast,0,2013-09-20 07:53:00
4:03 AM,46.4,44.6,93,30.09,0.8,Calm,Calm,-,N/A,,Mist,0,2013-09-20 08:03:00
4:12 AM,46.4,42.8,87,30.08,1.0,Calm,Calm,-,N/A,,Mist,0,2013-09-20 08:12:00
4:22 AM,46.4,42.8,87,30.08,2.5,Calm,Calm,-,N/A,,Scattered Clouds,0,2013-09-20 08:22:00
4:29 AM,44.6,42.8,93,30.08,6.0,Calm,Calm,-,N/A,,Partly Cloudy,0,2013-09-20 08:29:00
4:49 AM,46.4,44.6,93,30.08,1.8,Calm,Calm,-,N/A,,Partly Cloudy,0,2013-09-20 08:49:00
4:53 AM,45.0,43.0,93,30.08,1.8,Calm,Calm,-,N/A,,Partly Cloudy,0,2013-09-20 08:53:00
4:58 AM,44.6,42.8,93,30.08,3.0,Calm,Calm,-,N/A,,Clear,0,2013-09-20 08:58:00
5:03 AM,44.6,42.8,93,30.08,2.0,Calm,Calm,-,N/A,,Partly Cloudy,0,2013-09-20 09:03:00
5:19 AM,44.6,42.8,93,30.08,3.0,Calm,Calm,-,N/A,,Partly Cloudy,0,2013-09-20 09:19:00
5:53 AM,44.1,42.1,93,30.07,2.5,Calm,Calm,-,N/A,,Partly Cloudy,0,2013-09-20 09:53:00
6:01 AM,44.6,42.8,93,30.07,1.8,Calm,Calm,-,N/A,,Partly Cloudy,0,2013-09-20 10:01:00
6:05 AM,44.6,42.8,93,30.07,3.0,Calm,Calm,-,N/A,,Scattered Clouds,0,2013-09-20 10:05:00
6:15 AM,44.6,42.8,93,30.07,8.0,Calm,Calm,-,N/A,,Mostly Cloudy,0,2013-09-20 10:15:00
6:49 AM,44.6,42.8,93,30.08,1.5,Calm,Calm,-,N/A,,Overcast,0,2013-09-20 10:49:00
6:53 AM,45.0,43.0,93,30.09,0.8,Calm,Calm,-,N/A,,Overcast,0,2013-09-20 10:53:00
7:08 AM,46.4,44.6,93,30.09,0.2,Calm,Calm,-,N/A,Fog,Fog,0,2013-09-20 11:08:00
7:53 AM,48.9,48.0,97,30.10,0.2,Calm,Calm,-,N/A,Fog,Fog,0,2013-09-20 11:53:00
8:04 AM,51.8,48.2,88,30.10,1.0,Calm,Calm,-,N/A,,Mist,0,2013-09-20 12:04:00
8:08 AM,51.8,48.2,88,30.10,3.0,Calm,Calm,-,N/A,,Mostly Cloudy,0,2013-09-20 12:08:00
8:19 AM,53.6,51.8,94,30.10,6.0,Calm,Calm,-,N/A,,Scattered Clouds,0,2013-09-20 12:19:00
8:53 AM,57.0,53.1,87,30.10,8.0,Calm,Calm,-,N/A,,Clear,0,2013-09-20 12:53:00
9:53 AM,64.0,55.0,73,30.10,10.0,Calm,Calm,-,N/A,,Clear,0,2013-09-20 13:53:00
10:53 AM,70.0,53.1,55,30.09,10.0,Calm,Calm,-,N/A,,Clear,0,2013-09-20 14:53:00
11:53 AM,73.0,55.0,53,30.08,10.0,South,4.6,-,N/A,,Clear,190,2013-09-20 15:53:00
12:53 PM,75.9,48.0,37,30.06,10.0,SSW,4.6,-,N/A,,Clear,200,2013-09-20 16:53:00
1:53 PM,77.0,54.0,45,30.04,10.0,South,8.1,-,N/A,,Clear,190,2013-09-20 17:53:00
2:53 PM,77.0,48.0,36,30.03,10.0,South,8.1,-,N/A,,Clear,190,2013-09-20 18:53:00
3:53 PM,77.0,50.0,39,30.02,10.0,SSW,9.2,-,N/A,,Clear,200,2013-09-20 19:53:00
4:53 PM,75.9,52.0,43,30.01,10.0,South,9.2,-,N/A,,Clear,190,2013-09-20 20:53:00
5:53 PM,73.0,55.9,55,30.02,10.0,South,8.1,-,N/A,,Clear,180,2013-09-20 21:53:00
6:53 PM,66.0,57.0,73,30.02,10.0,South,3.5,-,N/A,,Clear,180,2013-09-20 22:53:00
7:53 PM,63.0,55.0,75,30.03,10.0,Calm,Calm,-,N/A,,Clear,0,2013-09-20 23:53:00
8:53 PM,59.0,55.0,87,30.03,10.0,Calm,Calm,-,N/A,,Clear,0,2013-09-21 00:53:00
9:53 PM,55.0,53.1,93,30.03,8.0,Calm,Calm,-,N/A,,Clear,0,2013-09-21 01:53:00
10:53 PM,54.0,51.1,90,30.03,3.0,Calm,Calm,-,N/A,,Clear,0,2013-09-21 02:53:00
10:58 PM,53.6,51.8,94,30.03,1.2,Calm,Calm,-,N/A,,Partly Cloudy,0,2013-09-21 02:58:00
11:14 PM,53.6,51.8,94,30.02,8.0,Calm,Calm,-,N/A,,Scattered Clouds,0,2013-09-21 03:14:00
11:35 PM,53.6,51.8,94,30.02,1.5,Calm,Calm,-,N/A,,Partly Cloudy,0,2013-09-21 03:35:00
11:42 PM,51.8,51.8,100,30.02,0.2,Calm,Calm,-,N/A,Fog,Fog,0,2013-09-21 03:42:00
11:53 PM,52.0,50.0,93,30.02,0.5,Calm,Calm,-,N/A,Fog,Fog,0,2013-09-21 03:53:00
11:57 PM,51.8,48.2,88,30.02,2.5,Calm,Calm,-,N/A,,Mostly Cloudy,0,2013-09-21 03:57:00